星链-30958 (STARLINK-30958 )

导读

STARLINK-30958是美国SpaceX星链计划中的卫星,于2023年11月28日发射升空,属于低轨互联网通信卫星。它加入了庞大的星链卫星星座,主要为全球范围内用户提供高速互联网接入服务,尤其覆盖偏远地区,进一步拓展了星链网络的覆盖范围与服务能力,推进了全球卫星互联网的组网进程。

Basic Information
目录编号:
58457
目录名称:
STARLINK-30958
国际标识:
2023-183W
轨道中心:
EARTH
卫星名称:
星链-30958
卫星全名:
星链-30958 (STARLINK-30958 )
卫星状态:
在轨 (已飞行930 天)
发射日期:
2023-11-28 UTC
国别 :
美国 (US)
星等 :
--
Orbit Information
数据来源 国际轨道数据 AOE轨道数据
星历时间 2026-06-15T03:46:10+0800
9小时前
查看轨道信息
2026-06-15T08:00:00+0800
5小时前
查看轨道信息
半长轴 6861.188km 6861.206km
偏心率 0.0001146 0.0001179
轨道倾角 43.006° 43.004°
近地点辐角 287.510° 287.045°
升交点赤经 212.716° 211.720°
平近点角 72.563° 323.548°
近地点 482.264km 482.26km
远地点 483.838km 483.878km
周期 94.267分钟 94.267分钟
每日圈数 15.275796 15.275734
Detailed Information
固有亮度:
5
最大亮度:
0.3
卫星平台:
Starlink v2.0 mini
覆盖范围:
全球
运营商:
太空探索技术公司
运营商所在国:
美国
制造商(研发单位):
太空探索技术公司
制造商所在国:
美国
使用方式:
暂无
Satellite Introduction
星链(Starlink)计划是由太空探索技术公司(SpaceX)提出的一个巨型低轨卫星互联网星座项目,计划在2019年至2024年间在太空搭建由约1.2万颗卫星组成的“星链”网络,其中1584颗将部署在地球上空550千米处的近地轨道,并从2020年开始工作。该卫星仍在工作。
2D Orbit Map
3D Orbit Map
Orbit Altitude Analysis Chart
Orbit Inclination Analysis Chart
Orbit Comprehensive Analysis Chart
View Comprehensive Chart